Flag for Canada Weather past 2 weeks in Arviat, Nunavut, Canada

Now
46 °F

Overcast.


Feels Like: 44 °F
Forecast: 45 / 54 °F
Wind: 5 mph from West

Location: Arviat Airport

Current Time: Jul 7, 2015 at 4:26:08 AM

Latest Report: Jul 7, 2015 at 4:00 AM


Visibility: 9 mi

Pressure: 29.72 "Hg

Humidity: 93%

Dew point: 45 °F

Location of ArviatLocation

Historic Weather in Arviat — Graph

°F

Arviat temperature yesterday

Maximum temperature yesterday: 57 °F (at 10:00 AM)
Minimum temperature yesterday: 41 °F (at 2:00 AM)
Average temperature yesterday: 49 °F

Past Weeks' High & Low Weather Summary

 TemperatureHumidityPressure
High68 °F (Jun 25, 6:00 PM)100% (Jun 23, 9:56 PM)30.02 "Hg (Jun 23, 9:56 PM)
Low36 °F (Jun 28, 4:00 AM)38% (Jun 25, 6:00 PM)29.62 "Hg (Jun 24, 4:00 PM)
Average49 °F77%29.86 "Hg
* Reported Jun 22 3:00 AM — Jul 7 3:00 AM, Arviat, Weather by CustomWeather, © 2015

Note: Actual official high and low records may vary slightly from our data, if they occured in-between our weather recording intervals... More about our weather records

Advertising

Arviat weather history for previous 24 hours

 ConditionsComfort  
Time TempWeatherWind HumidityBarometerVisibility
3:00 AM
Tue, Jul 7
46 °FOvercast.9 mph87%29.72 "Hg9 mi
2:00 AM46 °FMostly cloudy.10 mph87%29.73 "Hg9 mi
1:00 AM46 °FOvercast.8 mph87%29.75 "Hg9 mi
12:00 AM46 °FOvercast.7 mph87%29.75 "Hg9 mi
11:00 PM
Mon, Jul 6
46 °FOvercast.7 mph82%29.76 "Hg9 mi
10:00 PM46 °FOvercast.10 mph82%29.77 "Hg9 mi
9:00 PM48 °FCloudy.10 mph76%29.78 "Hg9 mi
8:00 PM48 °FMostly cloudy.13 mph76%29.78 "Hg9 mi
7:00 PM50 °FOvercast.13 mph71%29.79 "Hg9 mi
6:00 PM52 °FOvercast.15 mph67%29.79 "Hg9 mi
5:00 PM54 °FPartly sunny.14 mph58%29.82 "Hg15 mi
4:00 PM52 °FLight rain. Partly sunny.12 mph62%29.83 "Hg15 mi
3:00 PM55 °FPartly sunny.12 mph51%29.83 "Hg15 mi
2:00 PM54 °FPartly sunny.10 mph44%29.84 "Hg15 mi
1:00 PM55 °FScattered clouds.8 mph51%29.85 "Hg15 mi
12:05 PM55 °FPassing clouds.6 mph44%29.85 "Hg15 mi
11:00 AM54 °FPassing clouds.7 mph54%29.86 "Hg15 mi
10:00 AM57 °FPassing clouds.5 mph51%29.86 "Hg15 mi
9:00 AM54 °FPassing clouds.3 mph58%29.88 "Hg15 mi
8:00 AM50 °FPassing clouds.2 mph58%29.89 "Hg15 mi
7:00 AM48 °FPassing clouds.3 mph76%29.89 "Hg15 mi
6:00 AM45 °FSunny.2 mph87%29.90 "Hg9 mi
5:00 AM43 °FSunny.9 mph87%29.90 "Hg9 mi
4:00 AM41 °FClear.9 mph93%29.91 "Hg9 mi
Weather by CustomWeather, © 2015

See weather overviewHow to use our weather pages